Weather History for Regina, SK

Change the Weather History Date:

Wednesday, July 10, 2013

  Actual Average Record
Temperature  
Mean Temperature 66 °F -  
Max Temperature 80 °F 75 °F 91 °F (2012)
Min Temperature 53 °F 52 °F 46 °F (2004)
Cooling Degree Days 2    
Growing Degree Days 16 (Base 50)    
Moisture  
Dew Point 58 °F    
Average Humidity 71    
Maximum Humidity 100    
Minimum Humidity 38    
Precipitation  
Precipitation 0.00 in - - ()
Sea Level Pressure  
Sea Level Pressure 29.99 in    
Wind  
Wind Speed 7 mph ()    
Max Wind Speed 12 mph    
Max Gust Speed -    
Visibility 12.8 miles    
Events      
Averages and records for this station are not official NWS values.
T = Trace of Precipitation, MM = Missing Value Source: Averaged Metar Reports

Daily Weather History Graph

Daily Weather History Graph

Search for Another Location

Airport:

Trip Planner

Search our weather history database for the weather conditions in past years. The results will help you decide how hot, cold, wet, or windy it might be!

Date:

Astronomy

Jul. 10, 2013 Rise Set
Actual Time 4:59 AM CST 9:08 PM CST
Civil Twilight 4:15 AM CST 9:51 PM CST
Nautical Twilight 3:12 AM CST 10:54 PM CST
Astronomical Twilight 1:36 AM CST 12:31 AM CST
Moon 7:43 AM CST (7/10) 9:55 PM CST (7/10)
Length of Visible Light 17h 36m
Length of Day
16h 09m
Waxing Crescent, 5% of the Moon is Illuminated
Jul 10
Waxing Crescent
Jul 15
First Quarter
Jul 22
Full
Jul 29
Last Quarter
Aug 6
New

Hourly Weather History & Observations

Time (CST) Temp. Heat Index Dew Point Humidity Pressure Visibility Wind Dir Wind Speed Gust Speed Precip Events Conditions
12:00 AM 58 °F - 55 °F 88% 30.09 in 3 mi South 8.1 mph - -  
12:00 AM 59.0 °F - 55.4 °F 88% 30.09 in 15.0 mi South 8.1 mph - N/A   Partly Cloudy
1:00 AM 55.4 °F - 55.4 °F 100% 30.08 in 15.0 mi South 6.9 mph - N/A   Partly Cloudy
2:00 AM 57.2 °F - 55.4 °F 94% 30.07 in 10.0 mi SSW 8.1 mph - N/A   Clear
3:00 AM 55.4 °F - 53.6 °F 94% 30.06 in 10.0 mi SSW 6.9 mph - N/A   Clear
4:00 AM 53.6 °F - 53.6 °F 100% 30.05 in 10.0 mi SSW 5.8 mph - N/A   Partly Cloudy
5:00 AM 53.6 °F - 53.6 °F 100% 30.05 in 10.0 mi SSW 6.9 mph - N/A   Partly Cloudy
6:00 AM 56 °F - 55 °F 94% 30.04 in 6 mi SW 5.8 mph - -  
6:00 AM 55.4 °F - 55.4 °F 100% 30.04 in 10.0 mi SW 5.8 mph - N/A   Partly Cloudy
7:00 AM 60.8 °F - 57.2 °F 88% 30.04 in 12.0 mi SW 5.8 mph - N/A   Partly Cloudy
8:00 AM 66.2 °F - 59.0 °F 78% 30.04 in 15.0 mi WSW 8.1 mph - N/A   Partly Cloudy
9:00 AM 68.0 °F - 59.0 °F 73% 30.03 in 15.0 mi WSW 9.2 mph - N/A   Clear
10:00 AM 71.6 °F - 60.8 °F 69% 30.02 in 15.0 mi WSW 8.1 mph - N/A   Clear
11:00 AM 75.2 °F - 62.6 °F 65% 30.01 in 15.0 mi West 8.1 mph - N/A   Partly Cloudy
12:00 PM 77 °F - 62 °F 51% 30.00 in 9 mi WSW 6.9 mph - -  
12:00 PM 77.0 °F - 60.8 °F 57% 30.00 in 15.0 mi West 5.8 mph - N/A   Partly Cloudy
1:00 PM 78.8 °F - 59.0 °F 51% 29.99 in 15.0 mi SW 9.2 mph - N/A   Partly Cloudy
2:00 PM 78.8 °F - 57.2 °F 47% 29.98 in 15.0 mi WSW 4.6 mph - N/A   Partly Cloudy
3:00 PM 80.6 °F 80.5 °F 55.4 °F 42% 29.97 in 15.0 mi WSW 5.8 mph - N/A   Partly Cloudy
4:00 PM 80.6 °F 81.1 °F 59.0 °F 48% 29.96 in 15.0 mi SW 8.1 mph - N/A   Partly Cloudy
5:00 PM 80.6 °F 81.1 °F 59.0 °F 48% 29.95 in 15.0 mi South 6.9 mph - N/A   Partly Cloudy
6:00 PM 80 °F - 59 °F 38% 29.92 in 9 mi SSW 8.1 mph - -  
6:00 PM 80.6 °F 81.1 °F 59.0 °F 48% 29.93 in 15.0 mi SSW 9.2 mph - N/A   Clear
7:00 PM 78.8 °F - 60.8 °F 54% 29.91 in 15.0 mi South 6.9 mph - N/A   Clear
8:00 PM 77.0 °F - 60.8 °F 57% 29.90 in 15.0 mi SSE 9.2 mph - N/A   Clear
9:00 PM 73.4 °F - 60.8 °F 65% 29.88 in 15.0 mi SSE 9.2 mph - N/A   Clear
10:00 PM 71.6 °F - 60.8 °F 69% 29.87 in 15.0 mi SSE 10.4 mph - N/A   Clear
11:00 PM 68.0 °F - 60.8 °F 78% 29.86 in 15.0 mi SSE 11.5 mph - N/A   Clear